Tracking 19644 objects as of 24-Apr-2019
HD Live streaming from Space Station
objects crossing your sky now

TOPO 1

Track TOPO 1 now!
10-day predictions
TOPO 1 is classified as:


NORAD ID: 4363
Int'l Code: 1970-025B
Perigee: 1,091.1 km
Apogee: 1,092.9 km
Inclination: 100.0 °
Period: 106.9 minutes
Semi major axis: 7463 km
RCS: 0.1794 m2 (medium)
Launch date: April 8, 1970
Source: United States (US)
Launch site: AIR FORCE WESTERN TEST RANGE (AFWTR)
aabbcc
Your satellite tracking list
Your tracking list is empty




NASA's NSSDC Master Catalog

Two Line Element Set (TLE):
1  4363U 70025B   19113.69665455 -.00000028  00000-0  29105-4 0  9993
2  4363  99.9856  16.8183 0001211 271.6664 141.8693 13.46575964410162
Source of the keplerian elements: AFSPC